User: anonymous   Login
Location: Unspecified
(0.0000°N, 0.0000°E)
Time: 20:54:30
(UTC+00:00)
Language:

SR - Orbit

View from above orbital plane
View from above orbital plane
View from above satellite
View from above satellite

Ground track
Ground track

The orbit data is extracted from the following two-line orbital elements,

1    46U 60007B   19258.90691100 -.00000042 +00000-0 +15029-4 0  9992
2    46 066.6896 071.0515 0213250 334.7080 024.3702 14.49243582099187
Epoch (UTC): 15 September 2019 21:45:57
Eccentricity: 0.0213250
inclination: 66.6896°
perigee height: 576 km
apogee height: 879 km
right ascension of ascending node: 71.0515°
argument of perigee: 334.7080°
revolutions per day: 14.49243582
mean anomaly at epoch: 24.3702°
orbit number at epoch: 9918

The dashed part of the orbit path shows where the satellite is in the earth's shadow,  

DLR